Tacoma Narrows, WA

9:54 PM PDT on March 28, 2017 (GMT -0700)
Tacoma Narrows

Weather History for KTIW - May, 2013

Change the Weather History Date:

Thursday, May 2, 2013

  Actual Average Record
Temperature  
Mean Temperature 55 °F -  
Max Temperature 66 °F 58 °F 84 °F (2016)
Min Temperature 46 °F 43 °F 37 °F (2006)
Degree Days  
Heating Degree Days 10    
Growing Degree Days 5 (Base 50)    
Moisture  
Dew Point 35 °F    
Average Humidity 47    
Maximum Humidity 61    
Minimum Humidity 31    
Precipitation  
Precipitation 0.00 in - - ()
Sea Level Pressure  
Sea Level Pressure 30.44 in    
Wind  
Wind Speed 6 mph (NNE)    
Max Wind Speed 15 mph    
Max Gust Speed 21 mph    
Visibility 10 miles    
Events      
Averages and records for this station are not official NWS values.
T = Trace of Precipitation, MM = Missing Value Source: NWS Daily Summary

Daily Weather History Graph

Daily Weather History Graph

Search for Another Location

Airport or City:

Trip Planner

Search our weather history database for the weather conditions in past years. The results will help you decide how hot, cold, wet, or windy it might be!

Date:

Astronomy

May. 02, 2013 Rise Set
Actual Time 5:51 AM PDT 8:23 PM PDT
Civil Twilight 5:17 AM PDT 8:57 PM PDT
Nautical Twilight 4:34 AM PDT 9:41 PM PDT
Astronomical Twilight 3:44 AM PDT 10:31 PM PDT
Moon 2:12 AM PDT (5/2) 12:50 PM PDT (5/2)
Length of Visible Light 15h 40m
Length of Day
14h 31m
Waning Gibbous, 46% of the Moon is Illuminated
May 2
Waning Gibbous
May 9
New
May 17
First Quarter
May 24
Full
May 31
Last Quarter

Hourly Weather History & Observations

Time (PDT) Temp. Dew Point Humidity Pressure Visibility Wind Dir Wind Speed Gust Speed Precip Events Conditions
12:53 AM 51.1 °F 32.0 °F 48% 30.55 in 10.0 mi NNE 3.5 mph - N/A   Clear
1:53 AM 50.0 °F 33.1 °F 52% 30.54 in 10.0 mi Calm Calm - N/A   Clear
2:53 AM 48.9 °F 34.0 °F 56% 30.53 in 10.0 mi NNE 4.6 mph - N/A   Clear
3:53 AM 48.9 °F 30.9 °F 50% 30.51 in 10.0 mi NNE 3.5 mph - N/A   Clear
4:53 AM 46.9 °F 34.0 °F 61% 30.51 in 10.0 mi NNE 3.5 mph - N/A   Clear
5:53 AM 46.9 °F 34.0 °F 61% 30.50 in 10.0 mi NNE 4.6 mph - N/A   Clear
6:53 AM 48.0 °F 34.0 °F 58% 30.50 in 10.0 mi ENE 3.5 mph - N/A   Clear
7:53 AM 50.0 °F 36.0 °F 59% 30.50 in 10.0 mi NNW 3.5 mph - N/A   Clear
8:53 AM 51.1 °F 37.9 °F 61% 30.49 in 10.0 mi North 6.9 mph - N/A   Clear
9:53 AM 55.0 °F 39.0 °F 55% 30.47 in 10.0 mi North 6.9 mph - N/A   Clear
10:53 AM 59.0 °F 37.9 °F 46% 30.45 in 10.0 mi Variable 5.8 mph - N/A   Clear
11:53 AM 61.0 °F 36.0 °F 39% 30.45 in 10.0 mi NNE 6.9 mph - N/A   Clear
12:53 PM 63.0 °F 37.0 °F 38% 30.43 in 10.0 mi Variable 6.9 mph - N/A   Clear
1:53 PM 64.9 °F 34.0 °F 32% 30.41 in 10.0 mi North 9.2 mph - N/A   Clear
2:53 PM 64.9 °F 33.1 °F 31% 30.40 in 10.0 mi North 10.4 mph - N/A   Clear
3:53 PM 64.0 °F 37.0 °F 37% 30.39 in 10.0 mi North 9.2 mph - N/A   Clear
4:53 PM 63.0 °F 33.1 °F 33% 30.39 in 10.0 mi North 15.0 mph - N/A   Clear
5:53 PM 62.1 °F 33.1 °F 34% 30.37 in 10.0 mi NNE 12.7 mph 20.7 mph N/A   Clear
6:53 PM 60.1 °F 32.0 °F 35% 30.38 in 10.0 mi North 8.1 mph - N/A   Clear
7:53 PM 57.0 °F 35.1 °F 44% 30.37 in 10.0 mi North 10.4 mph 16.1 mph N/A   Clear
8:53 PM 55.0 °F 36.0 °F 49% 30.39 in 10.0 mi North 11.5 mph 18.4 mph N/A   Clear
9:53 PM 55.9 °F 35.1 °F 45% 30.38 in 10.0 mi NNE 10.4 mph 18.4 mph N/A   Clear
10:53 PM 54.0 °F 36.0 °F 51% 30.37 in 10.0 mi NNE 8.1 mph - N/A   Clear
11:53 PM 54.0 °F 36.0 °F 51% 30.38 in 10.0 mi NNE 5.8 mph - N/A   Clear